AXM890 WMKK-VTBS

Flight info

Callsign AXM890
Flight time N/A
Altitude 36000
Route BIKDU1D BIKDU Y501 RIGTO M769 LEBIM LEBIM1C
Aircraft A320/M-SDE3FGHIRWY/LB1

Departure

Time N/A
Airport Kuala Lumpur International Airport (WMKK)

Arrival

Time 2026-05-04 22:03
Airport Suvarnabhumi Airport (VTBS)
Time Latitude Longitude Altitude Speed Heading
2026-05-04 20:49 5.42194 100.72945 35871 ft 440 kts 340°
2026-05-04 20:49 5.47954 100.70872 35868 ft 440 kts 341°
2026-05-04 20:50 5.53682 100.68819 35869 ft 440 kts 341°
2026-05-04 20:50 5.59429 100.66692 35869 ft 440 kts 340°
2026-05-04 20:51 5.65170 100.64532 35866 ft 440 kts 340°
2026-05-04 20:51 5.70916 100.62376 35867 ft 440 kts 340°
2026-05-04 20:52 5.76630 100.60253 35865 ft 441 kts 340°
2026-05-04 20:52 5.82389 100.58117 35863 ft 441 kts 340°
2026-05-04 20:53 5.88142 100.55978 35868 ft 441 kts 340°
2026-05-04 20:53 5.93906 100.53825 35867 ft 441 kts 340°
2026-05-04 20:54 5.99633 100.51685 35870 ft 442 kts 340°
2026-05-04 20:54 6.05402 100.49535 35874 ft 442 kts 340°
2026-05-04 20:55 6.11175 100.47379 35877 ft 442 kts 340°
2026-05-04 20:55 6.16952 100.45226 35874 ft 442 kts 340°
2026-05-04 20:56 6.22703 100.43086 35876 ft 443 kts 340°
2026-05-04 20:56 6.28480 100.40930 35876 ft 443 kts 340°
2026-05-04 20:57 6.34253 100.38774 35876 ft 443 kts 340°
2026-05-04 20:57 6.40036 100.36609 35873 ft 443 kts 340°
2026-05-04 20:58 6.45785 100.34453 35877 ft 443 kts 340°
2026-05-04 20:58 6.51558 100.32296 35877 ft 443 kts 340°
2026-05-04 20:59 6.57347 100.30146 35879 ft 443 kts 340°
2026-05-04 20:59 6.63118 100.27988 35880 ft 442 kts 340°
2026-05-04 21:00 6.68896 100.25968 35876 ft 441 kts 348°
2026-05-04 21:00 6.74988 100.25567 35876 ft 439 kts
2026-05-04 21:01 6.81066 100.26247 35870 ft 439 kts
2026-05-04 21:01 6.87151 100.26912 35867 ft 439 kts
2026-05-04 21:02 6.93197 100.27572 35865 ft 440 kts
2026-05-04 21:02 6.99279 100.28239 35866 ft 440 kts
2026-05-04 21:03 7.05366 100.28909 35865 ft 440 kts
2026-05-04 21:03 7.11460 100.29585 35871 ft 440 kts
2026-05-04 21:04 7.17549 100.30262 35879 ft 440 kts
2026-05-04 21:04 7.23646 100.30931 35879 ft 440 kts
2026-05-04 21:05 7.29745 100.31605 35877 ft 440 kts
2026-05-04 21:05 7.35803 100.32272 35873 ft 440 kts
2026-05-04 21:06 7.41909 100.32936 35872 ft 441 kts
2026-05-04 21:06 7.48015 100.33611 35869 ft 441 kts
2026-05-04 21:07 7.54090 100.34197 35867 ft 441 kts
2026-05-04 21:07 7.60237 100.34358 35868 ft 441 kts
2026-05-04 21:08 7.66386 100.34368 35867 ft 441 kts
2026-05-04 21:08 7.72530 100.34446 35868 ft 442 kts
2026-05-04 21:09 7.78682 100.34588 35866 ft 442 kts
2026-05-04 21:09 7.84794 100.34739 35866 ft 442 kts
2026-05-04 21:10 7.90938 100.34888 35868 ft 442 kts
2026-05-04 21:10 7.97088 100.35034 35868 ft 442 kts
2026-05-04 21:11 8.03234 100.35169 35866 ft 442 kts
2026-05-04 21:11 8.09392 100.35308 35863 ft 442 kts
2026-05-04 21:12 8.15549 100.35448 35863 ft 442 kts
2026-05-04 21:12 8.21708 100.35589 35865 ft 443 kts
2026-05-04 21:13 8.27835 100.35726 35865 ft 443 kts
2026-05-04 21:13 8.34000 100.35863 35864 ft 443 kts
2026-05-04 21:14 8.40162 100.36005 35863 ft 443 kts
2026-05-04 21:14 8.46333 100.36148 35866 ft 443 kts
2026-05-04 21:15 8.52497 100.36289 35870 ft 443 kts
2026-05-04 21:15 8.58667 100.36435 35871 ft 443 kts
2026-05-04 21:16 8.64797 100.36580 35873 ft 443 kts
2026-05-04 21:16 8.70970 100.36719 35876 ft 443 kts
2026-05-04 21:17 8.77140 100.36851 35874 ft 443 kts
2026-05-04 21:17 8.83307 100.36999 35876 ft 443 kts
2026-05-04 21:18 8.89431 100.37146 35879 ft 443 kts
2026-05-04 21:18 8.95597 100.37285 35880 ft 442 kts
2026-05-04 21:19 9.01751 100.37419 35881 ft 442 kts
2026-05-04 21:19 9.07909 100.37565 35885 ft 442 kts
2026-05-04 21:20 9.13024 100.37689 35887 ft 442 kts
2026-05-04 21:20 9.19171 100.37831 35882 ft 442 kts
2026-05-04 21:21 9.25323 100.37971 35880 ft 442 kts
2026-05-04 21:21 9.31466 100.38115 35875 ft 442 kts
2026-05-04 21:22 9.37615 100.38260 35886 ft 441 kts
2026-05-04 21:22 9.43719 100.38402 35881 ft 441 kts
2026-05-04 21:23 9.49863 100.38548 35887 ft 441 kts
2026-05-04 21:23 9.55999 100.38696 35884 ft 441 kts
2026-05-04 21:24 9.62139 100.38838 35879 ft 441 kts
2026-05-04 21:24 9.68278 100.38979 35879 ft 441 kts
2026-05-04 21:25 9.74366 100.39122 35880 ft 441 kts
2026-05-04 21:25 9.80514 100.39267 35880 ft 441 kts
2026-05-04 21:26 9.86650 100.39410 35879 ft 440 kts
2026-05-04 21:26 9.92779 100.39552 35880 ft 440 kts
2026-05-04 21:27 9.98904 100.39700 35880 ft 440 kts
2026-05-04 21:27 10.05029 100.39848 35877 ft 440 kts
2026-05-04 21:28 10.11110 100.39991 35876 ft 440 kts
2026-05-04 21:28 10.17231 100.40138 35880 ft 439 kts
2026-05-04 21:29 10.23343 100.40284 35878 ft 439 kts
2026-05-04 21:29 10.29458 100.40436 35874 ft 439 kts
2026-05-04 21:30 10.35566 100.40586 35871 ft 438 kts
2026-05-04 21:30 10.41672 100.40727 35879 ft 438 kts
2026-05-04 21:31 10.50818 100.40945 35873 ft 438 kts
2026-05-04 21:32 10.56864 100.41096 35877 ft 437 kts
2026-05-04 21:32 10.62946 100.41244 35870 ft 437 kts
2026-05-04 21:33 10.69026 100.41385 35873 ft 437 kts
2026-05-04 21:33 10.75104 100.41527 35876 ft 436 kts
2026-05-04 21:34 10.81184 100.41676 35870 ft 436 kts
2026-05-04 21:34 10.87263 100.41834 35867 ft 436 kts
2026-05-04 21:35 10.93292 100.41982 35870 ft 437 kts
2026-05-04 21:35 10.99373 100.42128 35864 ft 437 kts
2026-05-04 21:36 11.05465 100.42277 35868 ft 437 kts
2026-05-04 21:36 11.11553 100.42419 35868 ft 437 kts
2026-05-04 21:37 11.17605 100.42561 35866 ft 438 kts
2026-05-04 21:37 11.23693 100.42713 35867 ft 438 kts
2026-05-04 21:38 11.29801 100.42863 35864 ft 438 kts
2026-05-04 21:38 11.35865 100.43014 35863 ft 438 kts
2026-05-04 21:39 11.41969 100.43163 35867 ft 438 kts
2026-05-04 21:39 11.48071 100.43313 35869 ft 438 kts
2026-05-04 21:40 11.54177 100.43462 35874 ft 439 kts
2026-05-04 21:40 11.60284 100.43610 35870 ft 439 kts
2026-05-04 21:41 11.66395 100.43762 35869 ft 439 kts
2026-05-04 21:41 11.72471 100.43911 35874 ft 439 kts
2026-05-04 21:42 11.78586 100.44070 35875 ft 439 kts
2026-05-04 21:42 11.84700 100.44225 35879 ft 439 kts
2026-05-04 21:43 11.90806 100.44373 35883 ft 439 kts
2026-05-04 21:43 11.96879 100.44523 35884 ft 439 kts
2026-05-04 21:44 12.02986 100.44676 35882 ft 439 kts
2026-05-04 21:44 12.09094 100.44826 35888 ft 439 kts
2026-05-04 21:45 12.15214 100.44979 35823 ft 444 kts
2026-05-04 21:45 12.18352 100.45055 35584 ft 455 kts
2026-05-04 21:45 12.21537 100.45133 35273 ft 456 kts
2026-05-04 21:45 12.24695 100.45213 34672 ft 452 kts
2026-05-04 21:46 12.27831 100.45296 34035 ft 450 kts
2026-05-04 21:46 12.30955 100.45379 33351 ft 447 kts
2026-05-04 21:46 12.34013 100.45460 32734 ft 443 kts
2026-05-04 21:46 12.37097 100.45538 32105 ft 440 kts
2026-05-04 21:47 12.40155 100.45610 31486 ft 437 kts
2026-05-04 21:47 12.43187 100.45681 30879 ft 434 kts
2026-05-04 21:47 12.46205 100.45755 30278 ft 432 kts
2026-05-04 21:47 12.49204 100.45832 29633 ft 430 kts
2026-05-04 21:48 12.52183 100.45924 28955 ft 427 kts
2026-05-04 21:48 12.55111 100.46022 28303 ft 424 kts
2026-05-04 21:48 12.58051 100.46119 27658 ft 422 kts
2026-05-04 21:48 12.60977 100.46194 27021 ft 419 kts
2026-05-04 21:49 12.63882 100.46251 26408 ft 416 kts
2026-05-04 21:49 12.66770 100.46304 25791 ft 414 kts
2026-05-04 21:49 12.69641 100.46390 25204 ft 412 kts
2026-05-04 21:49 12.72421 100.47003 24554 ft 404 kts 16°
2026-05-04 21:50 12.75120 100.47836 23440 ft 404 kts 17°
2026-05-04 21:50 12.77799 100.48681 22266 ft 401 kts 17°
2026-05-04 21:50 12.80446 100.49525 21231 ft 395 kts 17°
2026-05-04 21:50 12.83047 100.50357 20249 ft 389 kts 17°
2026-05-04 21:51 12.85608 100.51174 19300 ft 383 kts 17°
2026-05-04 21:51 12.88134 100.51976 18379 ft 377 kts 17°
2026-05-04 21:51 12.90620 100.52763 17369 ft 372 kts 17°
2026-05-04 21:51 12.93047 100.53529 16397 ft 366 kts 18°
2026-05-04 21:52 12.95467 100.54293 15456 ft 361 kts 18°
2026-05-04 21:52 12.97854 100.55047 14551 ft 356 kts 18°
2026-05-04 21:52 13.00202 100.55789 13666 ft 351 kts 18°
2026-05-04 21:52 13.02515 100.56522 12958 ft 346 kts 18°
2026-05-04 21:53 13.04804 100.57247 12477 ft 342 kts 18°
2026-05-04 21:53 13.07072 100.57966 11994 ft 338 kts 18°
2026-05-04 21:53 13.09286 100.58668 11508 ft 335 kts 18°
2026-05-04 21:53 13.11505 100.59371 11041 ft 332 kts 18°
2026-05-04 21:54 13.13701 100.60067 10633 ft 327 kts 18°
2026-05-04 21:54 13.15867 100.60753 10167 ft 325 kts 18°
2026-05-04 21:54 13.17986 100.61424 10023 ft 311 kts 18°
2026-05-04 21:54 13.20016 100.62067 9835 ft 300 kts 18°
2026-05-04 21:55 13.22006 100.62697 9449 ft 297 kts 18°
2026-05-04 21:55 13.23956 100.63315 8997 ft 296 kts 18°
2026-05-04 21:55 13.25927 100.63940 8550 ft 295 kts 18°
2026-05-04 21:55 13.27542 100.64453 8192 ft 293 kts 18°
2026-05-04 21:56 13.29487 100.65070 7743 ft 291 kts 18°
2026-05-04 21:56 13.31419 100.65684 7311 ft 290 kts 18°
2026-05-04 21:56 13.33320 100.66288 6882 ft 288 kts 18°
2026-05-04 21:56 13.35229 100.66896 6449 ft 286 kts 18°
2026-05-04 21:57 13.37088 100.67487 6302 ft 272 kts 18°
2026-05-04 21:57 13.38853 100.68047 6176 ft 259 kts 18°
2026-05-04 21:57 13.40550 100.68586 5907 ft 252 kts 18°
2026-05-04 21:57 13.42235 100.69074 5549 ft 250 kts 15°
2026-05-04 21:58 13.43923 100.69520 5042 ft 252 kts 15°
2026-05-04 21:58 13.45625 100.69955 4390 ft 251 kts 15°
2026-05-04 21:58 13.47312 100.70385 3837 ft 246 kts 14°
2026-05-04 21:58 13.48919 100.70797 3614 ft 229 kts 14°
2026-05-04 21:59 13.50413 100.71183 3257 ft 222 kts 14°
2026-05-04 21:59 13.51882 100.71565 2936 ft 213 kts 14°
2026-05-04 21:59 13.53273 100.71929 2618 ft 197 kts 14°
2026-05-04 21:59 13.54563 100.72267 2160 ft 187 kts 14°
2026-05-04 22:00 13.55757 100.72580 1976 ft 168 kts 14°
2026-05-04 22:00 13.56818 100.72858 1789 ft 149 kts 14°
2026-05-04 22:00 13.57783 100.73111 1610 ft 139 kts 14°
2026-05-04 22:00 13.58703 100.73353 1427 ft 135 kts 15°
2026-05-04 22:01 13.59604 100.73589 1264 ft 133 kts 15°
2026-05-04 22:01 13.60485 100.73821 1090 ft 132 kts 14°
2026-05-04 22:01 13.61370 100.74053 923 ft 131 kts 15°
2026-05-04 22:01 13.62240 100.74281 750 ft 127 kts 15°
2026-05-04 22:02 13.63091 100.74505 579 ft 125 kts 15°
2026-05-04 22:02 13.63926 100.74724 413 ft 123 kts 15°
2026-05-04 22:02 13.64745 100.74940 247 ft 121 kts 14°
2026-05-04 22:02 13.65558 100.75153 88 ft 120 kts 14°
2026-05-04 22:03 13.66326 100.75354 14 ft 98 kts 14°
2026-05-04 22:03 13.66832 100.75489 14 ft 60 kts 14°
2026-05-04 22:03 13.67191 100.75583 13 ft 49 kts 14°
2026-05-04 22:03 13.67500 100.75665 13 ft 44 kts 13°
2026-05-04 22:04 13.67760 100.75727 11 ft 32 kts 11°
2026-05-04 22:04 13.67982 100.75726 12 ft 33 kts 349°
2026-05-04 22:04 13.68149 100.75680 13 ft 19 kts 346°
2026-05-04 22:04 13.68290 100.75680 13 ft 22 kts 14°
2026-05-04 22:05 13.68450 100.75725 14 ft 25 kts 14°
2026-05-04 22:05 13.68628 100.75774 14 ft 28 kts 14°
2026-05-04 22:05 13.68772 100.75809 14 ft 14 kts 355°
2026-05-04 22:05 13.68821 100.75718 15 ft 17 kts 284°
2026-05-04 22:06 13.68852 100.75589 14 ft 21 kts 284°
2026-05-04 22:06 13.68893 100.75524 13 ft 10 kts 328°
2026-05-04 22:06 13.68956 100.75523 13 ft 6 kts 16°
2026-05-04 22:06 13.68962 100.75524 13 ft 0 kts 15°